User: anonymous   Login
Location: Unspecified
(0.0000°N, 0.0000°E)
Time: 02:41:22
(UTC+01:00)
Language:

Ariane H10 - Orbit

View from above orbital plane
View from above orbital plane
View from above satellite
View from above satellite

Ground track
Ground track

The orbit data is extracted from the following two-line orbital elements,

1 21727U 91067B   17348.21405306 +.00000013 +00000-0 +49238-4 0  9990
2 21727 004.1515 261.4273 7173370 293.7465 009.5788 02.31985459182145
Epoch (UTC): 14 December 2017 05:08:14
Eccentricity: 0.7173370
inclination: 4.1515°
perigee height: 435 km
apogee height: 35017 km
right ascension of ascending node: 261.4273°
argument of perigee: 293.7465°
revolutions per day: 2.31985459
mean anomaly at epoch: 9.5788°
orbit number at epoch: 18214

The dashed part of the orbit path shows where the satellite is in the earth's shadow,  

DLR